Tracking 28790 objects as of 18-Apr-2024
HD Live streaming from Space Station
objects crossing your sky now

NIMBUS 2 DEB

Track NIMBUS 2 DEB now!
10-day predictions


NORAD ID: 28610
Int'l Code: 1966-040Z
Perigee: 994.1 km
Apogee: 1,109.6 km
Inclination: 100.5 °
Period: 106.1 minutes
Semi major axis: 7422 km
RCS: 0.0177 m2 (small)
Launch date: May 15, 1966
Source: United States (US)
Launch site: AIR FORCE WESTERN TEST RANGE (AFWTR)

Note: This is SATELLITE DEBRIS
Your satellite tracking list
Your tracking list is empty




NASA's NSSDC Master Catalog

Two Line Element Set (TLE):
1 28610U 66040Z   24108.89688866  .00003614  00000-0  50098-2 0  9995
2 28610 100.5073 134.8025 0077780 274.1385 208.7192 13.57523017519353
Source of the keplerian elements: AFSPC